• In Austria
  • List of Countries
  • For 7 days
  • Water Temperature
  • Satellite Maps
  • Weather Map
  • News
  • Weather Widgets
  • user-avatar
    Login

    Hourly Weather Bregenz

    Today, 25 February, Sunday

    Time Temperature Precipitation Wind Pressure Humidity
    00:00 -9°C° 0 mm 3 mps 640 mmHg 90%
    01:00 -10°C° 0 mm 3 mps 640 mmHg 92%
    02:00 -10°C° 0 mm 3 mps 640 mmHg 91%
    03:00 -12°C° 0 mm 3 mps 640 mmHg 91%
    04:00 -12°C° 0 mm 3 mps 640 mmHg 91%
    05:00 -13°C° 0 mm 3 mps 640 mmHg 90%
    06:00 -14°C° 0 mm 4 mps 640 mmHg 90%
    07:00 -14°C° 0 mm 3 mps 640 mmHg 93%
    08:00 -13°C° 0 mm 3 mps 640 mmHg 89%
    09:00 -14°C° 0 mm 4 mps 640 mmHg 85%
    10:00 -12°C° 0 mm 4 mps 640 mmHg 81%
    11:00 -12°C° 0 mm 4 mps 640 mmHg 77%
    12:00 -11°C° 0 mm 4 mps 640 mmHg 74%
    13:00 -11°C° 0 mm 4 mps 641 mmHg 70%
    14:00 -11°C° 0 mm 4 mps 641 mmHg 71%
    15:00 -12°C° 0 mm 4 mps 640 mmHg 72%
    16:00 -13°C° 0 mm 5 mps 640 mmHg 73%
    17:00 -14°C° 0 mm 4 mps 640 mmHg 76%
    18:00 -16°C° 0 mm 4 mps 640 mmHg 80%
    19:00 -16°C° 0 mm 3 mps 641 mmHg 84%
    20:00 -17°C° 0 mm 3 mps 640 mmHg 84%
    21:00 -17°C° 0 mm 3 mps 640 mmHg 84%
    22:00 -18°C° 0 mm 3 mps 640 mmHg 85%
    23:00 -18°C° 0 mm 3 mps 640 mmHg 85%

    Tomorrow, 26 February, Monday

    Time Temperature Precipitation Wind Pressure Humidity
    00:00 -19°C° 0 mm 3 mps 640 mmHg 85%
    01:00 -19°C° 0 mm 3 mps 640 mmHg 84%
    02:00 -19°C° 0 mm 3 mps 640 mmHg 84%
    03:00 -21°C° 0 mm 3 mps 640 mmHg 84%
    04:00 -21°C° 0 mm 3 mps 639 mmHg 84%
    05:00 -21°C° 0 mm 3 mps 639 mmHg 84%
    06:00 -21°C° 0 mm 3 mps 639 mmHg 84%
    07:00 -22°C° 0 mm 3 mps 639 mmHg 84%
    08:00 -21°C° 0 mm 3 mps 640 mmHg 80%
    09:00 -20°C° 0 mm 4 mps 640 mmHg 76%
    10:00 -19°C° 0 mm 4 mps 640 mmHg 72%
    11:00 -18°C° 0 mm 4 mps 639 mmHg 69%
    12:00 -18°C° 0 mm 5 mps 639 mmHg 67%
    13:00 -18°C° 0 mm 5 mps 639 mmHg 65%
    14:00 -18°C° 0 mm 5 mps 639 mmHg 66%
    15:00 -18°C° 0 mm 5 mps 639 mmHg 68%
    16:00 -18°C° 0 mm 5 mps 638 mmHg 69%
    17:00 -18°C° 0 mm 4 mps 638 mmHg 73%
    18:00 -19°C° 0 mm 4 mps 639 mmHg 77%
    19:00 -19°C° 0 mm 3 mps 639 mmHg 81%
    20:00 -19°C° 0 mm 3 mps 638 mmHg 82%
    21:00 -21°C° 0 mm 3 mps 638 mmHg 84%
    22:00 -21°C° 0 mm 3 mps 638 mmHg 85%
    23:00 -22°C° 0 mm 3 mps 638 mmHg 85%

    Day after tomorrow, 27 February, Tuesday

    Time Temperature Precipitation Wind Pressure Humidity
    00:00 -20°C° 0 mm 2 mps 638 mmHg 84%
    01:00 -20°C° 0 mm 2 mps 637 mmHg 84%
    02:00 -21°C° 0 mm 2 mps 637 mmHg 84%
    03:00 -21°C° 0 mm 2 mps 637 mmHg 83%
    04:00 -21°C° 0 mm 2 mps 637 mmHg 82%
    05:00 -21°C° 0 mm 2 mps 637 mmHg 82%
    06:00 -21°C° 0 mm 2 mps 637 mmHg 82%
    07:00 -23°C° 0 mm 2 mps 636 mmHg 81%
    08:00 -20°C° 0 mm 2 mps 637 mmHg 76%
    09:00 -19°C° 0 mm 2 mps 637 mmHg 71%
    10:00 -17°C° 0 mm 2 mps 637 mmHg 66%
    11:00 -16°C° 0 mm 2 mps 637 mmHg 64%
    12:00 -16°C° 0 mm 3 mps 637 mmHg 63%
    13:00 -15°C° 0 mm 3 mps 637 mmHg 62%
    14:00 -15°C° 0 mm 3 mps 637 mmHg 64%
    15:00 -15°C° 0 mm 3 mps 637 mmHg 67%
    16:00 -15°C° 0 mm 3 mps 637 mmHg 69%
    17:00 -17°C° 0 mm 3 mps 637 mmHg 75%
    18:00 -17°C° 0 mm 2 mps 637 mmHg 81%
    19:00 -18°C° 0 mm 2 mps 637 mmHg 87%
    20:00 -18°C° 0 mm 2 mps 637 mmHg 87%
    21:00 -19°C° 0 mm 2 mps 637 mmHg 87%
    22:00 -19°C° 0 mm 2 mps 638 mmHg 86%
    23:00 -20°C° 0 mm 2 mps 638 mmHg 84%

    28 February, Wednesday

    Time Temperature Precipitation Wind Pressure Humidity
    00:00 -20°C° 0 mm 2 mps 637 mmHg 81%
    01:00 -20°C° 0 mm 2 mps 637 mmHg 79%
    02:00 -20°C° 0 mm 2 mps 637 mmHg 78%
    03:00 -20°C° 0 mm 2 mps 638 mmHg 77%
    04:00 -20°C° 0 mm 2 mps 638 mmHg 77%
    05:00 -20°C° 0 mm 2 mps 638 mmHg 76%
    06:00 -20°C° 0 mm 2 mps 638 mmHg 76%
    07:00 -20°C° 0 mm 2 mps 638 mmHg 75%
    08:00 -18°C° 0 mm 2 mps 638 mmHg 70%
    09:00 -16°C° 0 mm 2 mps 639 mmHg 64%
    10:00 -13°C° 0 mm 2 mps 639 mmHg 58%
    11:00 -12°C° 0 mm 2 mps 639 mmHg 56%
    12:00 -10°C° 0 mm 3 mps 640 mmHg 53%
    13:00 -9°C° 0 mm 3 mps 640 mmHg 50%
    14:00 -9°C° 0 mm 3 mps 640 mmHg 52%
    15:00 -8°C° 0 mm 3 mps 639 mmHg 54%
    16:00 -8°C° 0 mm 3 mps 639 mmHg 57%
    17:00 -10°C° 0 mm 3 mps 639 mmHg 63%
    18:00 -12°C° 0 mm 3 mps 639 mmHg 69%
    19:00 -13°C° 0 mm 3 mps 639 mmHg 76%
    20:00 -14°C° 0 mm 3 mps 639 mmHg 75%
    21:00 -14°C° 0 mm 3 mps 639 mmHg 75%
    22:00 -14°C° 0 mm 3 mps 639 mmHg 74%
    23:00 -14°C° 0 mm 3 mps 639 mmHg 73%

    1 March, Thursday

    Time Temperature Precipitation Wind Pressure Humidity
    00:00 -14°C° 0 mm 3 mps 638 mmHg 72%
    01:00 -14°C° 0 mm 3 mps 638 mmHg 71%
    02:00 -14°C° 0 mm 3 mps 638 mmHg 71%
    03:00 -14°C° 0 mm 3 mps 637 mmHg 71%
    04:00 -13°C° 0 mm 3 mps 637 mmHg 71%
    05:00 -13°C° 0 mm 3 mps 637 mmHg 72%
    06:00 -13°C° 0 mm 3 mps 636 mmHg 72%
    07:00 -13°C° 0 mm 3 mps 636 mmHg 72%
    08:00 -10°C° 0 mm 3 mps 636 mmHg 70%
    09:00 -9°C° 0 mm 3 mps 636 mmHg 68%
    10:00 -7°C° 0 mm 3 mps 636 mmHg 66%
    11:00 -6°C° 0 mm 3 mps 636 mmHg 67%
    12:00 -5°C° 0 mm 3 mps 636 mmHg 67%
    13:00 -4°C° 0 mm 3 mps 636 mmHg 67%
    14:00 -5°C° 0.1 mm 3 mps 636 mmHg 70%
    15:00 -5°C° 0.1 mm 3 mps 635 mmHg 73%
    16:00 -5°C° 0.1 mm 3 mps 635 mmHg 76%
    17:00 -5°C° 0.1 mm 3 mps 635 mmHg 78%
    18:00 -5°C° 0.1 mm 2 mps 635 mmHg 80%
    19:00 -5°C° 0.1 mm 2 mps 635 mmHg 82%
    20:00 -5°C° 0.1 mm 2 mps 635 mmHg 82%
    21:00 -5°C° 0.1 mm 2 mps 635 mmHg 82%
    22:00 -5°C° 0.1 mm 2 mps 635 mmHg 82%
    23:00 -5°C° 0 mm 2 mps 635 mmHg 82%

    2 March, Friday

    Time Temperature Precipitation Wind Pressure Humidity
    00:00 -5°C° 0 mm 2 mps 634 mmHg 82%
    01:00 -6°C° 0 mm 2 mps 634 mmHg 83%
    02:00 -6°C° 0 mm 2 mps 634 mmHg 82%
    03:00 -6°C° 0 mm 2 mps 634 mmHg 82%
    04:00 -6°C° 0 mm 2 mps 634 mmHg 82%
    05:00 -6°C° 0 mm 2 mps 634 mmHg 81%
    06:00 -6°C° 0 mm 2 mps 634 mmHg 81%
    07:00 -3°C° 0 mm 1 mps 634 mmHg 80%
    08:00 -2°C° 0 mm 1 mps 634 mmHg 79%
    09:00 0°C° 0 mm 1 mps 634 mmHg 78%
    10:00 +2°C° 0 mm 1 mps 635 mmHg 77%
    11:00 +3°C° 0 mm 1 mps 635 mmHg 75%
    12:00 +5°C° 0 mm 1 mps 635 mmHg 73%
    13:00 +6°C° 0 mm 1 mps 635 mmHg 71%
    14:00 +6°C° 0 mm 1 mps 634 mmHg 75%
    15:00 +5°C° 0 mm 1 mps 634 mmHg 79%
    16:00 +5°C° 0 mm 1 mps 634 mmHg 83%
    17:00 +3°C° 0 mm 2 mps 634 mmHg 84%
    18:00 +1°C° 0 mm 2 mps 633 mmHg 86%
    19:00 -1°C° 0 mm 2 mps 633 mmHg 87%
    20:00 -1°C° 0 mm 2 mps 633 mmHg 86%
    21:00 -2°C° 0 mm 2 mps 633 mmHg 85%
    22:00 -2°C° 0 mm 2 mps 633 mmHg 84%
    23:00 -2°C° 0 mm 2 mps 633 mmHg 84%
    Show more